Terug naar catalogus

OSCAR 23

ActiefAmateurradioPO
NORAD 19070·PAYLOAD·🇺🇸 United States

Gelanceerd Apr 26, 1988 vanaf Vandenberg Space Force Base

Loading…

Volgende Passages (komende 24 uur)

TLE

VersSource: Space-Track

Epoch: Sep 14, 2026, 15:11 UTC

1 19070U 88033A   26257.63276385  .00000041  00000-0  62573-4 0  9993
2 19070  90.3357  25.1331 0190878 132.7758 308.8385 13.27827985859141

Volg OSCAR 23 in realtime met AllMySat

Download on the App Store